NOAA 16 DEB, 41285

Orbit data source: Space-Track

NOAA 16 DEB, 41285 is space debris in SSO originally from a launch on Thu, 21 Sep 2000 UTC launched from the Air Force Western Test Range (AFWTR). Debris objects in space refer to the collection of defunct objects orbiting the Earth. Examples of debris include non-operational satellites, rocket bodies, and fragments generated from explosions, collisions, or faulty payload assembly.

Loading next visibility...
Identifier
41285, 2000-055GM
Orbit
SSO
Country
Flag of USUS
Related business
Manufacturer
Unknown
Mission
Spacecraft
Bus & Motor
Unknown
Mass
Unknown
Launch date (UTC)
2000-09-21 (25 years ago)
Launch vehicle
Unknown
Launch site
Air Force Western Test Range (AFWTR)
Object type
Payload
Rocket body
Debris
Shape & HBR
Unknown shape, 0.1 m
Radar Cross Section
Small (<0.1 m²)

Expand to show TLE details & history
Last TLE update: 1 day ago

TLE from 1 day ago
0 NOAA 16 DEB
1 41285U 00055GM  25338.39893730  .00009395  00000-0  39183-2 0  9995
2 41285  98.6775  42.2409 0051212 215.4542 144.3230 14.25716882513717
Epoch: 2025-12-04T09:34Z
TLE epoch observation values (Epoch: 2025-12-04T09:34:28.182Z)
Latitude
-0.00004°
Longitude
-174.83246°
Altitude
838.963 km
Speed
7.418 km/s
True Right ascension
02h 48m 57s
True Declination
0° 00' 00"
Sunlit
Object was in full shadow at epoch
Visualization orbit readout
Latitude
Unknown
Longitude
Unknown
Altitude
Unknown
Speed
Unknown
Apparent Right ascension
Unknown
Apparent Declination
Unknown
Sunlit
N/A
Visualization observer readout
Local Sidereal Time
13:25:22
Azimuth
Unknown
Elevation
Unknown
Doppler factor
Unknown
Orbital elements
Apogee altitude
840.01 km
Perigee altitude
766.455 km
Semi-major axis
7,181.37 km
Eccentricity
0.00512
Inclination
98.6775°
RAAN
42.2409°
Arg. of periapsis
215.4542°
True anomaly
144.66348°
Mean anomaly
144.323°
Eccentric anomaly
144.49342°
Mean motion
3.56642 °/min
Orbital period
100.94 mins
BSTAR
0.0039183
Loading maneuver chart data...
Computing Atmospheric mass density...

Documentation

Showing up to 5 results
|